Home > Weather > Ica > Past weeks

Flag for Peru Past Weather in Ica, Ica, Peru — Yesterday and Last 2 Weeks

Now
63 °F

Overcast.


Feels Like: 63 °F
Forecast: 56 / 86 °F
Wind: 8 mph from Southwest

Location: Pisco Airport

Current Time: Jul 29, 2016 at 10:38:05 PM

Latest Report: Jul 29, 2016 at 10:00 PM


Visibility: N/A

Pressure: 29.95 "Hg

Humidity: 83%

Dew Point: 57 °F

Location of IcaLocation

Past Weather in Ica — Graph

°F

Ica Temperature Yesterday

Maximum temperature yesterday: 66 °F (at 4:00 PM)
Minimum temperature yesterday: 61 °F (at 9:00 PM)
Average temperature yesterday: 63 °F

High & Low Weather Summary for the Past Weeks

 TemperatureHumidityPressure
High68 °F (Jul 15, 12:00 PM)94% (Jul 16, 7:00 AM)30.07 "Hg (Jul 16, 7:00 AM)
Low55 °F (Jul 18, 6:00 AM)64% (Jul 27, 1:00 PM)29.83 "Hg (Jul 26, 3:00 PM)
Average63 °F83%29.96 "Hg
* Reported Jul 14 9:00 PM — Jul 29 9:00 PM, Ica, Weather by CustomWeather, © 2016

Note: Actual official high and low records may vary slightly from our data, if they occured in-between our weather recording intervals... More about our weather records

Advertising

Ica Weather History for the Previous 24 Hours

Scroll right to see more
 ConditionsComfort  
Time TempWeatherWind HumidityBarometerVisibility
9:00 PM
Fri, Jul 29
63 °FOvercast.9 mph77%29.95 "HgN/A
8:00 PM63 °FOvercast.10 mph77%29.95 "HgN/A
7:00 PM63 °FOvercast.12 mph83%29.92 "HgN/A
6:00 PM64 °FOvercast.9 mph78%29.92 "HgN/A
5:00 PM63 °FOvercast.6 mph83%29.89 "HgN/A
4:00 PM63 °FOvercast.5 mph83%29.89 "HgN/A
3:00 PM63 °FOvercast.6 mph83%29.89 "HgN/A
2:00 PM63 °FOvercast.6 mph83%29.92 "HgN/A
1:00 PM63 °FOvercast.5 mph83%29.95 "Hg5 mi
12:00 PM63 °FOvercast.5 mph77%29.95 "Hg5 mi
11:00 AM63 °FOvercast.5 mph77%29.98 "Hg5 mi
10:00 AM63 °FOvercast.3 mph77%29.98 "Hg5 mi
9:00 AM61 °FOvercast.3 mph83%29.98 "Hg5 mi
8:00 AM61 °FOvercast.7 mph83%29.95 "Hg5 mi
7:00 AM59 °FOvercast.7 mph88%29.92 "Hg5 mi
6:00 AM59 °FOvercast.9 mph88%29.89 "Hg4 mi
5:00 AM61 °FOvercast.10 mph77%29.89 "Hg5 mi
4:00 AM63 °FOvercast.3 mph83%29.89 "Hg5 mi
3:00 AM63 °FOvercast.No wind83%29.92 "HgN/A
2:00 AM63 °FOvercast.3 mph83%29.92 "HgN/A
1:00 AM61 °FOvercast.9 mph88%29.92 "HgN/A
12:00 AM61 °FOvercast.9 mph88%29.95 "HgN/A
11:00 PM
Thu, Jul 28
61 °FOvercast.9 mph88%29.95 "HgN/A
10:00 PM61 °FOvercast.12 mph88%29.95 "HgN/A
Weather by CustomWeather, © 2016

See weather overviewHow to use our weather pages